Home   Weather   Hamamatsu   Past weeks

Flag for Japan Past Weather in Hamamatsu, Japan — Yesterday and Last 2 Weeks

Now
54 °F

Cool.


Feels Like: 49 °F
Forecast: 40 / 53 °F
Wind: 20 mph from West

Location: Omaezaki

Current Time: Dec 10, 2016 at 4:10:06 pm

Latest Report: Dec 10, 2016 at 2:00 pm


Visibility: 13 mi

Pressure: 29.94 "Hg

Humidity: 31%

Dew Point: 24 °F

Location of HamamatsuLocation

Past Weather in Hamamatsu — Graph

°F

Hamamatsu Temperature Yesterday

Maximum temperature yesterday: 60 °F (at 12:00 pm)
Minimum temperature yesterday: 46 °F (at 12:00 am)
Average temperature yesterday: 54 °F

High & Low Weather Summary for the Past Weeks

 TemperatureHumidityPressure
High65 °F (Dec 1, 1:00 pm)97% (Nov 27, 6:00 am)30.45 "Hg (Nov 27, 6:00 am)
Low41 °F (Dec 7, 2:00 am)29% (Dec 10, 12:00 pm)29.73 "Hg (Nov 28, 3:00 am)
Average54 °F66%30.07 "Hg
* Reported Nov 25 2:00 pm — Dec 10 2:00 pm, Hamamatsu, Weather by CustomWeather, © 2016

Note: Actual official high and low records may vary slightly from our data, if they occured in-between our weather recording intervals... More about our weather records

Advertising

Hamamatsu Weather History for the Previous 24 Hours

Scroll right to see more
 ConditionsComfort  
Time TempWeatherWind HumidityBarometerVisibility
2:00 pm
Sat, Dec 10
54 °FCool.20 mph31%29.94 "Hg12 mi
1:00 pm55 °FRefreshingly cool.20 mph30%29.93 "Hg12 mi
12:00 pm55 °FCool.18 mph29%29.95 "Hg12 mi
11:00 am55 °FRefreshingly cool.13 mph33%29.97 "Hg12 mi
10:00 am53 °FCool.16 mph39%29.98 "Hg12 mi
9:00 am51 °FCool.9 mph50%29.99 "Hg12 mi
8:00 am47 °FCool.16 mph63%29.97 "Hg12 mi
7:00 am45 °FCool.16 mph73%29.95 "Hg12 mi
6:00 am46 °FCool.15 mph67%29.93 "Hg12 mi
4:00 am48 °FCool.20 mph64%29.91 "Hg12 mi
3:00 am48 °FCool.21 mph68%29.91 "Hg12 mi
2:00 am50 °FCool.20 mph61%29.91 "Hg12 mi
1:00 am52 °FCool.21 mph61%29.92 "Hg12 mi
12:00 am52 °FCool.20 mph62%29.91 "Hg12 mi
11:00 pm
Fri, Dec 9
51 °FCool.17 mph59%29.91 "Hg12 mi
10:00 pm51 °FCool.15 mph61%29.90 "Hg12 mi
9:00 pm52 °FCool.13 mph61%29.89 "Hg12 mi
8:00 pm52 °FCool.12 mph63%29.88 "Hg12 mi
7:00 pm55 °FCool.16 mph61%29.86 "Hg12 mi
6:00 pm58 °FRefreshingly cool.17 mph59%29.84 "Hg12 mi
5:00 pm58 °FRefreshingly cool.16 mph57%29.83 "Hg12 mi
4:00 pm58 °FRefreshingly cool.12 mph55%29.83 "Hg12 mi
Weather by CustomWeather, © 2016

See weather overviewHow to use our weather pages